Regional Weather Roundup
Issued by NWS State College, PA

Home | Current Version | Previous Version | Graphics & Text | Print | Product List | Glossary Off
Versions: 1 2 3 4 5 6 7 8 9 10 11 12 13 14 15 16 17 18 19 20 21 22 23 24 25 26 27 28 29 30 31 32 33 34 35 36 37 38 39 40 41 42 43 44 45 46 47 48 49 50

000
ASUS41 KCTP 242003
RWRCTP

REGIONAL WEATHER ROUNDUP
NATIONAL WEATHER SERVICE STATE COLLEGE PA
400 PM EDT THU JUL 24 2014

Note: "fair" indicates few or no clouds below 12,000 feet with no
significant weather and/or obstructions to visibility.

* = STATION THAT DOES NOT REPORT PRECIPITATION /E.G. RAIN...SNOW...ETC/
    THUNDER OR FOG.

PAZ002>004-007>009-013>016-020>023-029>032-242100-
WESTERN PENNSYLVANIA

CITY           SKY/WX    TMP DP  RH WIND       PRES   REMARKS
ERIE           SUNNY     70  48  45 N9        30.06F
MEADVILLE      MOSUNNY   71  50  47 N9G20     30.05F
FRANKLIN*      PTSUNNY   70  48  46 N7        30.04S
NEW CASTLE       N/A     73  53  49 N9        30.03F
BEAVER COUNTY  CLOUDY    72  54  53 N8        30.03S
BUTLER*        MOSUNNY   73  54  49 N7G16     30.03S
PITTSBURGH INT MOSUNNY   74  51  44 N9        30.01S
PITTSBURGH     MOSUNNY   76  52  43 VRB3      29.99F
INDIANA*       PTSUNNY   73  54  49 N8        30.04S
LATROBE        MOSUNNY   75  63  64 N8        30.00S
WASHINGTON CO* MOSUNNY   72  52  49 N7        30.01S
$$

PAZ004>006-010>012-017>019-024>028-033>037-041-042-045-046-049>053-242100-
CENTRAL PENNSYLVANIA

CITY           SKY/WX    TMP DP  RH WIND       PRES   REMARKS
BRADFORD       MOSUNNY   69  49  48 N10       30.03F
DUBOIS         PTSUNNY   72  51  47 N8        30.00F
CLEARFIELD     MOSUNNY   73  51  46 NW7       30.00S
JOHNSTOWN      PTSUNNY   67  50  54 N10       30.02S
ALTOONA        MOSUNNY   74  51  44 N7        29.99S
STATE COLLEGE  PTSUNNY   73  52  46 N10       29.98S
WILLIAMSPORT   PTSUNNY   77  49  37 NW9       29.94S
SELINSGROVE    PTSUNNY   75  54  47 NW10      29.95R
FT INDIANTOWN  PTSUNNY   78  54  43 N9        29.93R
CAPITAL CITY   MOSUNNY   78  51  38 N10       29.92R
HARRISBURG     PTSUNNY   80  53  39 N10       29.91R
YORK           MOSUNNY   78  56  46 N9        29.92S
$$

PAZ038>040-043-044-047-048-054-055-060>062-067>071-242100-
EASTERN PENNSYLVANIA

CITY           SKY/WX    TMP DP  RH WIND       PRES   REMARKS
SCRANTON       MOSUNNY   77  50  38 N10G20    29.93S
MOUNT POCONO   MOSUNNY   70  50  49 N9        29.94F
ALLENTOWN      MOSUNNY   81  54  39 N9        29.88F
QUAKERTOWN*    PTCLDY    77  55  47 N6        29.89F
READING        PTSUNNY   77  53  43 N9        29.89S
LANCASTER      MOSUNNY   79  58  48 N13       29.90S
COATESVILLE    PTCLDY    77  55  47 N10G18    29.91S
POTTSTOWN      MOSUNNY   80  56  43 N9        29.89F
BLUE BELL      PTSUNNY   81  59  47 N3        29.86F
DOYLESTOWN     SUNNY     82  56  40 N8        29.87F
WILLOW GROVE   NOT AVBL
NORTH PHILA    MOSUNNY   82  54  37 N8G20     29.88S
PHILADELPHIA   PTSUNNY   83  55  38 NW12      29.86F
$$



USA.gov is the U.S. government's official web portal to all federal, state and local government web resources and services.